Location: *
(13.2257°S, 48.7193°W)
Time: 10:15:42
(UTC+00:00)

Meteor 1-28 Rocket - Pass Details

Date: 13 February 2026
Orbit: 426 x 434 km, 97.6° (Epoch: 11 March)

Event Time Altitude Azimuth Distance (km) Brightness Sun altitude
Rises 08:41:45 0° 192° (SSW) 2,404 6.7 -8.1°
Reaches altitude 10° 08:44:12 10° 211° (SSW) 1,529 5.4 -7.6°
Maximum altitude 08:46:31 18° 256° (WSW) 1,118 4.4 -7.0°
Drops below altitude 10° 08:48:49 10° 302° (WNW) 1,515 5.0 -6.5°
Enters shadow 08:50:01 - 314° (NW) 1,915 5.5 -6.2°
